Regional Weather Roundup
Issued by NWS

Home | Current Version | Previous Version | Graphics & Text | Print | Product List | Glossary Off
Versions: 1 2 3 4 5 6 7 8 9 10 11 12 13 14 15 16 17 18 19 20 21 22 23 24 25 26 27 28 29 30 31 32 33 34 35 36 37 38 39 40 41 42 43 44 45 46 47 48 49 50

101
ASUS43 KMPX 021201
RWRMN
WEATHER ROUNDUP FOR MINNESOTA
NATIONAL WEATHER SERVICE TWIN CITIES/CHANHASSEN MN
600 AM CST FRI DEC 02 2016


NOTE: "FAIR" INDICATES FEW OR NO CLOUDS BELOW 12,000 FEET WITH NO
SIGNIFICANT WEATHER AND/OR OBSTRUCTIONS TO VISIBILITY. N/A MEANS
CURRENT SKY AND/OR WEATHER CONDITIONS ARE NOT AVAILABLE.

MNZ060>063-068>070-021300-
   Twin Cities Metro

CITY           SKY/WX    TMP DP  RH WIND       PRES   REMARKS
TWIN CITIES    CLOUDY    31  21  66 NW10      30.14R WCI  22
6HR MIN TEMP:  31; 6HR MAX TEMP:  33;

ST PAUL        CLOUDY    31  22  69 N9        30.16R WCI  23
CRYSTAL        CLOUDY    31  19  61 NW7       30.13R WCI  24
BLAINE         CLOUDY    32  25  74 NW5       30.13S WCI  27
LAKEVILLE      CLOUDY    28  23  80 W6        30.14R WCI  22
EDEN PRAIRIE   CLOUDY    32  21  64 NW8       30.13R WCI  25
6HR MIN TEMP:  32; 6HR MAX TEMP:  34;

SOUTH ST PAUL  CLOUDY    32  23  68 N9        30.14R WCI  24
LAKE ELMO      CLOUDY    32  23  69 NW6       30.15R WCI  26
$$
MNZ001>005-007-008-013>017-022>024-027-028-021300-
   Northwest Minnesota

CITY           SKY/WX    TMP DP  RH WIND       PRES   REMARKS
BEMIDJI        CLOUDY    22  19  88 NW8       30.14R WCI  13
HALLOCK        CLOUDY    28  25  86 N8        30.19R WCI  20
ROSEAU         CLOUDY    25  19  80 N6        30.17R WCI  18
WARROAD        CLOUDY    21  18  86 N5        30.17R WCI  15
THIEF RVR FALL CLOUDY    25  20  81 N10       30.18  WCI  15
CROOKSTON      CLOUDY    27  21  80 N9G16     30.20R WCI  17
FOSSTON        CLOUDY    23  19  86 N7        30.16S WCI  15
DETROIT LAKES  CLOUDY    27  23  86 NW10      30.16R WCI  17
MOORHEAD       CLOUDY    27  21  80 N9        30.20R WCI  17
PARK RAPIDS    CLOUDY    24  17  74 NW8       30.14R WCI  15
$$
MNZ006-009>011-018-025>026-021300-
   North Central Minnesota

CITY           SKY/WX    TMP DP  RH WIND       PRES   REMARKS
BAUDETTE       CLOUDY    22  20  92 W10       30.15R WCI  11
FLAG ISLAND    CLOUDY    19  18  93 NW9       30.15S WCI   9
INTL FALLS     CLOUDY    26  22  84 NW6       30.12R WCI  19
6HR MIN TEMP:  25; 6HR MAX TEMP:  26;

WASKISH        CLOUDY    21  21 100 W3        30.15R
BIG FORK       CLOUDY    27  21  80 NW3       30.12R
LONGVILLE      CLOUDY    27  21  80 NW3       30.13R
GRAND RAPIDS   CLOUDY    26  22  84 NW9       30.13R WCI  17
CRANE LAKE     CLOUDY    21  21 100 N6        30.13R WCI  14
ORR            CLOUDY    25  19  80 CALM      30.08R
COOK           CLOUDY    25  21  86 N5        30.11R WCI  19
$$
MNZ012-019>021-037-021300-
   Northeast Minnesota

CITY           SKY/WX    TMP DP  RH WIND       PRES   REMARKS
DULUTH         CLOUDY    27  22  81 NW7       30.08R WCI  19
6HR MIN TEMP:  27; 6HR MAX TEMP:  28;

ELY            CLOUDY    21  21 100 NW5       30.09R WCI  15
HIBBING        CLOUDY    24  20  84 N10       30.10R WCI  14
EVELETH        CLOUDY    26  21  83 N5        30.10R WCI  20
DULUTH HARBOR  CLOUDY    30  25  80 W15       30.12R WCI  19
TWO HARBORS    PTCLDY    28  23  80 NW9       30.07R WCI  20
SILVER BAY     CLOUDY    27  23  86 NW7       30.06R WCI  19
GRAND MARAIS     N/A     30  22  72 VRB3      30.07R
G MARAIS ARPRT CLOUDY    21  18  86 NW9       30.01R WCI  11
$$
MNZ029>031-032-039>041-046>048-054>057-064-021300-
   West Central Minnesota

CITY           SKY/WX    TMP DP  RH WIND       PRES   REMARKS
FERGUS FALLS   CLOUDY    27  21  80 N8G16     30.21R WCI  18
WHEATON        CLOUDY   N/A N/A N/A N7        30.20S
MORRIS         CLOUDY    28  21  74 N10       30.17R WCI  19
ALEXANDRIA     CLOUDY    26  21  81 N6        30.15R WCI  19
ELBOW LAKE     CLOUDY    26  22  85 N6        30.18R WCI  19
WADENA         CLOUDY    25  19  80 NW6       30.14R WCI  18
GLENWOOD       CLOUDY    27  21  80 NW5       30.16R WCI  21
APPLETON       CLOUDY    30  23  74 NW8       30.18R WCI  23
BENSON         CLOUDY    28  21  74 N9        30.17R WCI  20
ORTONVILLE     CLOUDY    27  21  80 CALM      30.18R
MADISON        CLOUDY    30  28  93 N9        30.19R WCI  22
WILLMAR        CLOUDY    28  25  86 NW10      30.18R WCI  19
$$
MNZ033>034-036-042>043-049>051-058-059-021300-
   Central Minnesota

CITY           SKY/WX    TMP DP  RH WIND       PRES   REMARKS
ST CLOUD       CLOUDY    29  23  78 NW7       30.14R WCI  22
6HR MIN TEMP:  29; 6HR MAX TEMP:  30;

PAYNESVILLE    CLOUDY    29  22  76 NW7       30.16R WCI  21
AITKIN         CLOUDY    28  21  74 N6        30.11R WCI  22
PINE RIVER     CLOUDY    25  19  80 W5        30.16S WCI  19
BRAINERD       CLOUDY    26  21  81 NW9       30.14R WCI  17
STAPLES        CLOUDY    25  21  86 N7        30.14R WCI  17
LONG PRAIRIE   CLOUDY    27  21  80 W7        30.15R WCI  19
LITTLE FALLS   CLOUDY    28  21  74 W8        30.15R WCI  20
LITCHFIELD     CLOUDY    30  23  74 NW7       30.16R WCI  23
BUFFALO        CLOUDY    30  22  71 NW7       30.16R WCI  23
MAPLE LAKE     CLOUDY    31  24  76 NW6       30.16R WCI  25
$$
MNZ037-044-045-052-053-021300-
   East Central Minnesota

CITY           SKY/WX    TMP DP  RH WIND       PRES   REMARKS
PRINCETON      CLOUDY    30  25  80 W6        30.14R WCI  24
MORA           CLOUDY    30  23  74 N5        30.14R WCI  25
CAMBRIDGE      CLOUDY    32  23  69 CALM      30.12R
RUSH CITY      CLOUDY    30  23  74 CALM      30.13R
MOOSE LAKE     CLOUDY    30  23  74 NW5       30.09R WCI  25
HINCKLEY       CLOUDY    30  27  86 NW5       30.12R WCI  25
CLOQUET        CLOUDY    27  21  80 NW9G16    30.09R WCI  17
MCGREGOR       CLOUDY    28  23  80 NW3       30.12R
$$
MNZ071>073-080-081-089-090-097-098-021300-
   Southwest Minnesota

CITY           SKY/WX    TMP DP  RH WIND       PRES   REMARKS
MONTEVIDEO     CLOUDY    28  27  93 N6        30.19R WCI  22
GRANITE FALLS  CLOUDY    32  27  81 NW7       30.19R WCI  25
CANBY          CLOUDY    30  27  86 CALM      30.19R
MARSHALL       CLOUDY    29  25  85 NW10      30.18R WCI  20
REDWOOD FALLS  CLOUDY    31  22  69 NW6       30.17R WCI  25
OLIVIA         CLOUDY    30  25  80 N10       30.16R WCI  21
PIPESTONE      CLOUDY    28  25  86 N6        30.15R WCI  22
WINDOM         CLOUDY    30  27  86 CALM      30.16R
WORTHINGTON    CLOUDY    29  27  92 N10       30.16R WCI  20
JACKSON        CLOUDY    30  27  86 NW8       30.15S WCI  23
TRACY          CLOUDY    30  27  89 NW8       30.17R WCI  23
SLAYTON        CLOUDY    28  25  91 NW8       30.16R WCI  19
$$
MNZ065>067-074>077-082>085-091>093-021300-
   South Central Minnesota

CITY           SKY/WX    TMP DP  RH WIND       PRES   REMARKS
MANKATO        CLOUDY    31  25  78 N10       30.15R WCI  22
NEW ULM        CLOUDY    30  23  74 NW9       30.16R WCI  22
ST JAMES       CLOUDY    30  27  86 NW9       30.18R WCI  22
FAIRMONT       CLOUDY    31  26  82 NW13      30.16R WCI  21
GLENCOE        CLOUDY    32  26  81 NW6       30.15R WCI  26
FARIBAULT      CLOUDY    30  25  80 NW6       30.14R WCI  24
OWATONNA       CLOUDY    30  21  69 NW8       30.13R WCI  23
WASECA         CLOUDY    32  28  86 NW9       30.14S WCI  24
ALBERT LEA     CLOUDY    34  28  80 NW6       30.13R WCI  29
$$
MNZ078>079-086>088-094>096-021300-
   Southeast Minnesota

CITY           SKY/WX    TMP DP  RH WIND       PRES   REMARKS
ROCHESTER      CLOUDY    31  25  78 N7        30.11R WCI  24
6HR MIN TEMP:  31; 6HR MAX TEMP:  34;

RED WING       CLOUDY    32  21  64 N3        30.13R
STANTON        CLOUDY    32  24  71 NW5       30.13R WCI  27
DODGE CENTER   CLOUDY    30  25  80 NW9       30.11R WCI  22
WINONA         CLOUDY    32  25  74 NW10      30.14R WCI  24
AUSTIN         CLOUDY    30  25  80 NW10G17   30.12R WCI  21
PRESTON        CLOUDY    30  25  80 N7        30.11R WCI  23
$$
ABBREVIATIONS USED IN REMARKS
   TC - TEMPERATURES IN CELSIUS
  WCI - WIND CHILL INDEX
   HX - HEAT INDEX
  VSB - VISIBILITY
$$




USA.gov is the U.S. government's official web portal to all federal, state and local government web resources and services.